Location: downtown San Diego
(32.7310°N, 117.1990°W)
Time: 06:22:03
(UTC-07:00)

Cosmos 44 - Pass Details

Date: 19 May 2017
Orbit: 594 x 769 km, 65.1° (Epoch: 28 May)

Event Time Altitude Azimuth Distance (km) Brightness Sun altitude
Rises 20:20:22 0° 340° (NNW) 2,836 7.3 -7.7°
Reaches altitude 10° 20:22:43 10° 347° (NNW) 1,928 6.3 -8.1°
Maximum altitude 20:26:49 41° 58° (ENE) 867 3.6 -8.8°
Enters shadow 20:30:31 12° 128° (SE) 1,789 4.8 -9.5°
